Date String (YYYY-MM-DD hh:mm:ss) UTC,Instrument flags,Ambient pressure (hPa),Sample flow (lpm),Bypass flow (lpm),Sample temperature (°C),Ambient temperature (°C),ASC tube jacket temperature (°C),LED temperature (°C),Box temperature (°C),Sample RH (%),Span deviation,Mass concentration (μg/m³),Mass concentration (μg/m³),Mass concentration (μg/m³)
DateTimeUTC,F1_M11,P_M11,Q1_M11,Q2_M11,T1_M11,T2_M11,T3_M11,T4_M11,T5_M11,U1_M11,ZSPAN_M11,X0_M11,X2_M11,X1_M11
2022-09-14 13:00:00,,0822.7,4.99,0.00,30.6,29.2,00.0,39.4,32.4,17.7,0001.8,0014.17,0007.90,0007.01
2022-09-14 13:01:00,,0822.7,5.01,0.00,30.6,29.2,00.0,39.4,32.4,17.7,0002.0,0014.41,0007.87,0006.99
2022-09-14 13:02:00,,0822.7,5.01,0.00,30.6,29.2,00.0,39.4,32.4,17.6,0001.8,0014.54,0007.87,0006.98
2022-09-14 13:03:00,,0822.7,4.99,0.00,30.6,29.2,00.0,39.4,32.4,17.6,0001.6,0014.58,0007.87,0006.97
2022-09-14 13:04:00,,0822.8,5.01,0.00,30.6,29.2,00.0,39.4,32.4,17.5,0001.6,0014.56,0007.85,0006.96
2022-09-14 13:05:00,,0822.8,4.99,0.00,30.6,29.3,00.0,39.4,32.4,17.4,0001.9,0014.52,0007.77,0006.92
2022-09-14 13:06:00,,0822.8,5.00,0.00,30.7,29.3,00.0,39.4,32.5,17.4,0002.0,0013.67,0007.66,0006.88
2022-09-14 13:07:00,,0822.8,5.01,0.00,30.7,29.3,00.0,39.4,32.5,17.3,0002.4,0013.61,0007.50,0006.82
2022-09-14 13:08:00,,0822.8,5.00,0.00,30.7,29.3,00.0,39.4,32.5,17.3,0002.5,0012.99,0007.43,0006.79
2022-09-14 13:09:00,,0822.8,4.99,0.00,30.7,29.3,00.0,39.5,32.5,17.2,0002.7,0012.38,0007.40,0006.77
2022-09-14 13:10:00,,0822.8,5.01,0.00,30.7,29.3,00.0,39.5,32.5,17.2,0003.0,0012.32,0007.35,0006.73
2022-09-14 13:11:00,,0822.8,5.00,0.00,30.7,29.3,00.0,39.5,32.5,17.2,0003.3,0012.27,0007.32,0006.69
2022-09-14 13:12:00,,0822.8,5.00,0.00,30.7,29.4,00.0,39.5,32.5,17.2,0003.1,0012.63,0007.25,0006.65
2022-09-14 13:13:00,,0822.9,5.00,0.00,30.7,29.4,00.0,39.5,32.5,17.1,0003.2,0012.25,0007.17,0006.61
2022-09-14 13:14:00,,0822.8,5.00,0.00,30.8,29.4,00.0,39.5,32.5,17.1,0003.3,0012.14,0007.16,0006.58
2022-09-14 13:15:00,,0822.9,4.99,0.00,30.8,29.4,00.0,39.5,32.5,17.0,0003.3,0012.00,0007.15,0006.58
2022-09-14 13:16:00,,0822.9,5.01,0.00,30.8,28.5,00.0,39.5,32.5,17.1,0003.2,0011.78,0007.14,0006.58
2022-09-14 13:17:00,,0822.9,4.99,0.00,30.7,27.2,00.0,39.4,32.4,17.0,0003.1,0011.74,0007.19,0006.60
2022-09-14 13:18:00,,0822.9,5.00,0.00,30.7,27.0,00.0,39.4,32.3,16.9,0002.8,0011.33,0007.19,0006.60
2022-09-14 13:19:00,,0822.9,5.00,0.00,30.6,27.3,00.0,39.3,32.1,17.0,0003.0,0010.98,0007.20,0006.63
2022-09-14 13:20:00,,0823.0,5.00,0.00,30.5,27.6,00.0,39.3,32.1,17.0,0002.8,0011.03,0007.22,0006.65
2022-09-14 13:21:00,,0823.0,4.99,0.00,30.4,27.9,00.0,39.3,32.0,17.0,0002.3,0011.02,0007.25,0006.70
2022-09-14 13:22:00,,0823.0,4.99,0.00,30.4,28.1,00.0,39.2,32.0,17.0,0002.2,0011.16,0007.30,0006.75
2022-09-14 13:23:00,,0823.0,5.01,0.00,30.4,28.3,00.0,39.2,32.1,17.0,0002.3,0010.92,0007.38,0006.80
2022-09-14 13:24:00,,0822.9,5.01,0.00,30.4,28.5,00.0,39.2,32.1,16.8,0002.6,0011.56,0007.52,0006.86
2022-09-14 13:25:00,,0822.9,4.99,0.00,30.4,28.6,00.0,39.2,32.1,16.7,0002.7,0012.32,0007.56,0006.93
2022-09-14 13:26:00,,0822.9,5.01,0.00,30.4,28.7,00.0,39.2,32.1,16.7,0002.8,0013.38,0007.63,0006.99
2022-09-14 13:27:00,,0823.0,5.00,0.00,30.4,28.8,00.0,39.2,32.1,16.7,0003.0,0013.65,0007.71,0007.06
2022-09-14 13:28:00,,0822.9,5.01,0.00,30.4,28.9,00.0,39.2,32.1,16.7,0002.7,0013.77,0007.76,0007.11
2022-09-14 13:29:00,,0823.0,5.00,0.00,30.4,28.9,00.0,39.2,32.1,16.7,0002.5,0014.56,0007.88,0007.19
2022-09-14 13:30:00,,0823.0,5.01,0.00,30.4,28.9,00.0,39.2,32.2,16.7,0002.3,0015.27,0008.03,0007.27
2022-09-14 13:31:00,,0822.9,5.00,0.00,30.4,29.0,00.0,39.2,32.2,16.7,0002.4,0016.15,0008.15,0007.35
2022-09-14 13:32:00,,0822.9,4.99,0.00,30.4,29.0,00.0,39.2,32.2,16.8,0002.5,0016.60,0008.22,0007.40
2022-09-14 13:33:00,,0822.9,5.01,0.00,30.4,29.0,00.0,39.2,32.2,16.7,0002.1,0016.83,0008.33,0007.47
2022-09-14 13:34:00,,0823.0,4.99,0.00,30.5,29.1,00.0,39.2,32.2,16.7,0001.6,0016.80,0008.39,0007.55
2022-09-14 13:35:00,,0823.0,5.01,0.00,30.5,29.1,00.0,39.2,32.3,16.8,0001.4,0016.35,0008.39,0007.60
2022-09-14 13:36:00,,0823.0,4.99,0.00,30.5,29.1,00.0,39.2,32.3,16.8,0001.6,0015.87,0008.43,0007.63
2022-09-14 13:37:00,,0823.0,5.01,0.00,30.5,29.2,00.0,39.2,32.3,16.8,0001.7,0015.02,0008.47,0007.66
2022-09-14 13:38:00,,0823.1,4.99,0.00,30.5,29.2,00.0,39.3,32.3,16.9,0001.1,0015.02,0008.49,0007.66
2022-09-14 13:39:00,,0823.1,5.01,0.00,30.5,29.2,00.0,39.3,32.3,16.9,0000.9,0015.13,0008.53,0007.68
2022-09-14 13:40:00,,0823.1,4.99,0.00,30.6,29.2,00.0,39.3,32.4,17.1,0001.1,0014.73,0008.53,0007.66
2022-09-14 13:41:00,,0823.1,5.01,0.00,30.6,29.2,00.0,39.3,32.4,17.1,0001.3,0014.71,0008.49,0007.62
2022-09-14 13:42:00,,0823.1,4.99,0.00,30.6,29.3,00.0,39.3,32.4,17.0,0001.3,0014.08,0008.44,0007.59
2022-09-14 13:43:00,,0823.1,5.01,0.00,30.6,29.3,00.0,39.3,32.4,17.0,0001.0,0014.13,0008.43,0007.57
2022-09-14 13:44:00,,0823.2,5.01,0.00,30.6,29.3,00.0,39.4,32.4,17.0,0001.4,0014.07,0008.41,0007.52
2022-09-14 13:45:00,,0823.2,5.00,0.00,30.6,29.3,00.0,39.4,32.4,17.0,0001.8,0014.04,0008.39,0007.48
2022-09-14 13:46:00,,0823.2,4.99,0.00,30.7,29.3,00.0,39.4,32.5,17.0,0002.1,0013.85,0008.34,0007.44
2022-09-14 13:47:00,,0823.2,5.01,0.00,30.7,29.4,00.0,39.4,32.5,17.0,0002.3,0013.64,0008.33,0007.41
2022-09-14 13:48:00,,0823.2,5.01,0.00,30.7,29.4,00.0,39.4,32.5,17.0,0002.0,0014.23,0008.32,0007.39
2022-09-14 13:49:00,,0823.2,5.00,0.00,30.7,29.4,00.0,39.4,32.5,17.1,0002.1,0014.42,0008.34,0007.39
2022-09-14 13:50:00,,0823.2,5.00,0.00,30.7,29.4,00.0,39.4,32.5,17.0,0002.7,0014.73,0008.31,0007.40
2022-09-14 13:51:00,,0823.2,5.00,0.00,30.7,29.4,00.0,39.5,32.5,17.5,0003.0,0015.37,0008.31,0007.44
2022-09-14 13:52:00,,0823.2,5.01,0.00,30.7,29.4,00.0,39.5,32.5,17.8,0003.1,0015.08,0008.34,0007.49
2022-09-14 13:53:00,,0823.1,5.00,0.00,30.8,29.4,00.0,39.5,32.6,17.6,0003.2,0015.12,0008.38,0007.51
2022-09-14 13:54:00,,0823.2,5.00,0.00,30.8,29.5,00.0,39.5,32.6,17.4,0003.1,0015.51,0008.40,0007.53
2022-09-14 13:55:00,,0823.1,5.00,0.00,30.8,29.5,00.0,39.5,32.6,17.4,0002.9,0015.47,0008.35,0007.54
2022-09-14 13:56:00,,0823.1,5.00,0.00,30.8,28.6,00.0,39.5,32.6,17.4,0003.2,0015.50,0008.39,0007.56
2022-09-14 13:57:00,,0823.1,5.00,0.00,30.8,27.3,00.0,39.4,32.5,17.3,0003.1,0015.71,0008.39,0007.57
2022-09-14 13:58:00,,0823.1,5.00,0.00,30.7,27.2,00.0,39.4,32.4,17.4,0002.6,0015.87,0008.41,0007.59
2022-09-14 13:59:00,,0823.2,4.99,0.00,30.6,27.4,00.0,39.4,32.2,17.5,0002.8,0015.37,0008.41,0007.62
